Location: Bellflower
(33.8817°N, 118.1170°W)
Time: 14:04:19
(UTC+00:00)

CZ-4B R/B - Pass Details

Date: 23 November 2020
Orbit: 389 x 457 km, 97.6° (Epoch: 21 January)

Event Time Altitude Azimuth Distance (km) Brightness Sun altitude
Rises 12:53:40 0° 171° (S) 2,370 5.3 -20.4°
Reaches altitude 10° 12:55:41 10° 173° (S) 1,497 4.3 -20.0°
Enters shadow 12:58:45 72° 233° (SW) 438 1.1 -19.3°
